NI4CE-10 Weather Reports


time (UTC)temp
C
wind
direction
speed
KPH
gust
KPH
rain 1hr
cm
rain 24hr
cm
rain mn
cm
humidity
%
barometer
mb
20260902164012 32 2 9.7 14.5 0.03 0.66 0.28 100 1017.8
20260902163755 32 2 9.7 14.5 0.03 0.66 0.28 100 1017.8
20260902163255 30 2 4.8 12.9 0.05 0.66 0.28 100 1017.7
20260902163134 31 11 11.3 19.3 0.13 0.66 0.28 100 1017.7
20260902162755 31 11 11.3 19.3 0.13 0.66 0.28 100 1017.7
20260902162255 32 14 9.7 19.3 0.23 0.66 0.28 100 1017.7
20260902162126 33 355 12.9 20.9 0.25 0.66 0.28 100 1017.7
20260902161755 33 355 12.9 20.9 0.25 0.66 0.28 100 1017.7
20260902161255 33 7 11.3 16.1 0.25 0.66 0.28 100 1017.8
20260902161113 32 299 1.6 19.3 0.25 0.66 0.28 100 1017.9
20260902160755 32 299 1.6 19.3 0.25 0.66 0.28 100 1017.9
20260902160255 33 347 14.5 17.7 0.25 0.66 0.28 100 1018.0
20260902160111 31 358 8.0 14.5 0.25 0.66 0.28 100 1018.0
20260902155755 31 358 8.0 14.5 0.25 0.66 0.28 100 1018.0
20260902155255 30 1 4.8 14.5 0.25 0.66 0.28 100 1017.9
20260902154755 31 340 3.2 11.3 0.25 0.66 0.28 100 1018.0
20260902154256 32 15 8.0 9.7 0.25 0.66 0.28 100 1017.9
20260902154036 31 4 0.0 0.0 0.23 0.64 0.25 100 1018.0
20260902153756 31 4 0.0 0.0 0.23 0.64 0.25 100 1018.0
20260902153256 28 4 0.0 6.4 0.20 0.61 0.23 100 1018.1
20260902153126 28 70 3.2 14.5 0.13 0.53 0.15 100 1018.1
20260902152756 28 70 3.2 14.5 0.13 0.53 0.15 100 1018.1
20260902152256 30 0 6.4 14.5 0.00 0.41 0.03 100 1018.1
20260902151756 33 358 3.2 9.7 0.00 0.41 0.03 100 1018.2
20260902151256 32 19 4.8 4.8 0.00 0.41 0.03 100 1018.1
20260902150948 32 29 3.2 11.3 0.00 0.41 0.03 100 1018.1
20260902150756 32 29 3.2 11.3 0.00 0.41 0.03 100 1018.1
20260902150256 33 49 4.8 8.0 0.00 0.41 0.03 100 1018.0
20260902145756 32 85 4.8 8.0 0.00 0.41 0.03 100 1018.0
20260902145256 33 113 4.8 6.4 0.00 0.41 0.03 100 1018.0
20260902144756 33 12 0.0 4.8 0.00 0.41 0.03 100 1018.0
20260902144256 31 14 3.2 8.0 0.00 0.41 0.03 100 1018.0
20260902144007 32 54 8.0 11.3 0.00 0.41 0.03 100 1017.9
20260902143756 32 54 8.0 11.3 0.00 0.41 0.03 100 1017.9
20260902143256 35 4 0.0 6.4 0.00 0.41 0.03 100 1017.8
20260902142756 34 60 0.0 8.0 0.00 0.41 0.03 100 1017.8
20260902142623 31 78 3.2 9.7 0.00 0.41 0.03 100 1017.8
20260902142256 31 78 3.2 9.7 0.00 0.41 0.03 100 1017.8
20260902142011 35 106 6.4 9.7 0.00 0.41 0.03 100 1017.8
20260902141756 35 106 6.4 9.7 0.00 0.41 0.03 100 1017.8
20260902141256 35 25 1.6 9.7 0.00 0.41 0.03 100 1017.8
20260902141028 35 54 0.0 6.4 0.00 0.41 0.03 100 1017.8
20260902140758 35 54 0.0 6.4 0.00 0.41 0.03 100 1017.8
20260902140540 32 8 1.6 11.3 0.00 0.41 0.03 100 1017.9
20260902140256 32 8 1.6 11.3 0.00 0.41 0.03 100 1017.9
20260902135756 34 18 4.8 14.5 0.00 0.41 0.03 100 1017.9
20260902135536 38 73 0.0 9.7 0.00 0.41 0.03 100 1017.9
20260902135256 38 73 0.0 9.7 0.00 0.41 0.03 100 1017.9
20260902135141 38 358 6.4 11.3 0.00 0.41 0.03 100 1017.8
20260902134756 38 358 6.4 11.3 0.00 0.41 0.03 100 1017.8
20260902134256 37 23 0.0 4.8 0.00 0.41 0.03 100 1017.8
20260902134124 37 53 3.2 12.9 0.00 0.41 0.03 100 1017.9
20260902133756 37 53 3.2 12.9 0.00 0.41 0.03 100 1017.9
20260902133654 36 12 11.3 11.3 0.00 0.41 0.03 100 1017.9
20260902133256 36 12 11.3 11.3 0.00 0.41 0.03 100 1017.9
20260902133013 35 36 4.8 11.3 0.00 0.41 0.03 100 1017.9
20260902132756 35 36 4.8 11.3 0.00 0.41 0.03 100 1017.9
20260902132256 35 49 6.4 11.3 0.00 0.41 0.03 100 1017.8
20260902132002 33 63 0.0 11.3 0.00 0.41 0.03 100 1017.8
20260902131756 33 63 0.0 11.3 0.00 0.41 0.03 100 1017.8
20260902131256 33 46 6.4 12.9 0.00 0.41 0.03 100 1017.8
20260902130756 33 40 3.2 8.0 0.00 0.41 0.03 100 1017.8
20260902130256 32 85 3.2 11.3 0.00 0.41 0.03 100 1017.9
20260902125756 32 42 6.4 11.3 0.00 0.41 0.03 100 1017.8
20260902125256 32 23 8.0 11.3 0.00 0.41 0.03 100 1017.9
20260902125044 31 22 3.2 9.7 0.00 0.41 0.03 100 1017.9
20260902124756 31 22 3.2 9.7 0.00 0.41 0.03 100 1017.9
20260902124506 30 19 8.0 9.7 0.00 0.41 0.03 100 1017.8
20260902124256 30 19 8.0 9.7 0.00 0.41 0.03 100 1017.8
20260902123929 27 323 4.8 11.3 0.00 0.41 0.03 100 1017.7
20260902123756 27 323 4.8 11.3 0.00 0.41 0.03 100 1017.7
20260902123600 26 28 1.6 9.7 0.00 0.41 0.03 100 1017.7
20260902123256 26 28 1.6 9.7 0.00 0.41 0.03 100 1017.7
20260902122756 26 4 4.8 4.8 0.00 0.41 0.03 100 1017.6
20260902122256 26 49 0.0 6.4 0.00 0.41 0.03 100 1017.5
20260902121756 26 12 4.8 8.0 0.00 0.41 0.03 100 1017.5
20260902121256 25 23 6.4 9.7 0.00 0.41 0.03 100 1017.5
20260902120756 25 14 3.2 8.0 0.00 0.41 0.03 100 1017.5
20260902120535 25 358 3.2 6.4 0.00 0.41 0.03 100 1017.4
20260902120257 25 358 3.2 6.4 0.00 0.41 0.03 100 1017.4
20260902115756 25 358 3.2 3.2 0.00 0.41 0.03 100 1017.4
20260902115257 25 14 0.0 3.2 0.00 0.41 0.03 100 1017.3
20260902114757 25 0 0.0 0.0 0.00 0.41 0.03 100 1017.3
20260902114257 25 0 0.0 3.2 0.00 0.41 0.03 100 1017.3
20260902114054 25 11 0.0 3.2 0.00 0.41 0.03 100 1017.4
20260902113757 25 11 0.0 3.2 0.00 0.41 0.03 100 1017.4
20260902113609 24 22 0.0 0.0 0.00 0.41 0.03 100 1017.4
20260902113257 24 22 0.0 0.0 0.00 0.41 0.03 100 1017.4
20260902113016 24 22 0.0 0.0 0.00 0.41 0.03 100 1017.4
20260902112757 24 22 0.0 0.0 0.00 0.41 0.03 100 1017.4
20260902112535 24 22 0.0 0.0 0.00 0.41 0.03 100 1017.4
20260902112257 24 22 0.0 0.0 0.00 0.41 0.03 100 1017.4
20260902111757 24 22 0.0 0.0 0.00 0.41 0.03 100 1017.3
20260902111257 24 22 0.0 0.0 0.00 0.41 0.03 100 1017.4
20260902110757 24 22 0.0 0.0 0.00 0.41 0.03 100 1017.3
20260902110257 24 22 0.0 0.0 0.03 0.41 0.03 100 1017.2
20260902105757 24 22 0.0 0.0 0.03 0.41 0.03 100 1017.3
20260902105257 24 22 0.0 0.0 0.03 0.41 0.03 100 1017.2
20260902105025 24 22 0.0 0.0 0.03 0.41 0.03 100 1017.2
20260902104757 24 22 0.0 0.0 0.03 0.41 0.03 100 1017.2
20260902104257 24 22 0.0 0.0 0.03 0.41 0.03 100 1017.0
20260902103757 24 22 0.0 0.0 0.03 0.41 0.03 100 1017.0
20260902103257 24 22 0.0 0.0 0.03 0.41 0.03 100 1016.9
20260902103212 24 22 0.0 0.0 0.03 0.41 0.03 100 1016.9
20260902102757 24 22 0.0 0.0 0.03 0.41 0.03 100 1016.9
20260902102702 24 22 0.0 0.0 0.03 0.41 0.03 100 1016.9
20260902102257 24 22 0.0 0.0 0.03 0.41 0.03 100 1016.9
20260902101757 24 22 0.0 0.0 0.03 0.41 0.03 100 1016.8
20260902101525 24 22 0.0 0.0 0.03 0.41 0.03 100 1016.8
20260902101257 24 22 0.0 0.0 0.03 0.41 0.03 100 1016.8
20260902101116 24 22 0.0 0.0 0.03 0.41 0.03 100 1016.9
20260902100757 24 22 0.0 0.0 0.03 0.41 0.03 100 1016.9
20260902100450 24 22 0.0 0.0 0.00 0.38 0.00 100 1016.9
20260902100257 24 22 0.0 0.0 0.00 0.38 0.00 100 1016.9
20260902100009 24 22 0.0 0.0 0.00 0.38 0.00 100 1016.8
20260902095757 24 22 0.0 0.0 0.00 0.38 0.00 100 1016.8
20260902095528 24 22 0.0 0.0 0.00 0.38 0.00 100 1016.8
20260902095257 24 22 0.0 0.0 0.00 0.38 0.00 100 1016.8
20260902094757 24 22 0.0 0.0 0.00 0.38 0.00 100 1016.7
20260902094257 24 22 0.0 0.0 0.00 0.38 0.00 100 1016.6
20260902093757 24 22 0.0 0.0 0.00 0.38 0.00 100 1016.6
20260902093257 24 22 0.0 0.0 0.00 0.38 0.00 100 1016.5
20260902092757 25 22 0.0 0.0 0.00 0.38 0.00 100 1016.5
20260902092257 25 22 0.0 0.0 0.00 0.38 0.00 100 1016.5
20260902091757 25 22 0.0 0.0 0.00 0.38 0.00 100 1016.6
20260902091257 24 22 0.0 0.0 0.00 0.38 0.00 100 1016.6
20260902091115 25 22 0.0 0.0 0.00 0.38 0.00 100 1016.5
20260902090757 25 22 0.0 0.0 0.00 0.38 0.00 100 1016.5
20260902090412 25 22 0.0 0.0 0.00 0.38 0.00 100 1016.4
20260902090257 25 22 0.0 0.0 0.00 0.38 0.00 100 1016.4
20260902085757 25 22 0.0 0.0 0.00 0.38 0.00 100 1016.4
20260902085257 25 22 0.0 0.0 0.00 0.38 0.00 100 1016.3
20260902085037 25 22 0.0 0.0 0.00 0.38 0.00 100 1016.3
20260902084934 25 22 0.0 0.0 0.00 0.38 0.00 100 1016.3
20260902084757 25 22 0.0 0.0 0.00 0.38 0.00 100 1016.3
20260902084350 25 22 0.0 0.0 0.00 0.38 0.00 100 1016.3
20260902084257 25 22 0.0 0.0 0.00 0.38 0.00 100 1016.3
20260902083757 25 22 0.0 0.0 0.00 0.38 0.00 100 1016.3
20260902083451 25 22 0.0 0.0 0.00 0.38 0.00 100 1016.3
20260902083341 25 22 0.0 0.0 0.00 0.38 0.00 100 1016.3
20260902083257 25 22 0.0 0.0 0.00 0.38 0.00 100 1016.3
20260902082757 25 22 0.0 0.0 0.00 0.38 0.00 100 1016.3
20260902082257 25 22 0.0 0.0 0.00 0.38 0.00 100 1016.4
20260902082058 25 22 0.0 0.0 0.00 0.38 0.00 100 1016.4
20260902081757 25 22 0.0 0.0 0.00 0.38 0.00 100 1016.4
20260902081535 25 22 0.0 0.0 0.00 0.38 0.00 100 1016.4
20260902081257 25 22 0.0 0.0 0.00 0.38 0.00 100 1016.4
20260902080757 25 22 0.0 0.0 0.00 0.38 0.00 100 1016.3
20260902080511 25 22 0.0 4.8 0.00 0.38 0.00 100 1016.2
20260902080257 25 22 0.0 4.8 0.00 0.38 0.00 100 1016.2
20260902075758 25 5 0.0 0.0 0.00 0.38 0.00 100 1016.3
20260902075258 25 5 0.0 0.0 0.00 0.38 0.00 100 1016.3
20260902075040 25 5 0.0 0.0 0.00 0.38 0.00 100 1016.3
20260902074930 25 5 0.0 0.0 0.00 0.38 0.00 100 1016.3
20260902074758 25 5 0.0 0.0 0.00 0.38 0.00 100 1016.3
20260902074258 25 5 0.0 3.2 0.00 0.38 0.00 100 1016.3
20260902073758 25 16 0.0 0.0 0.00 0.38 0.00 100 1016.3
20260902073258 25 16 0.0 0.0 0.00 0.38 0.00 100 1016.3
20260902073017 25 16 0.0 0.0 0.00 0.38 0.00 100 1016.4
20260902072758 25 16 0.0 0.0 0.00 0.38 0.00 100 1016.4
20260902072258 25 16 0.0 0.0 0.00 0.38 0.00 100 1016.4
20260902072119 25 16 0.0 3.2 0.00 0.38 0.00 100 1016.4
20260902072041 25 16 0.0 3.2 0.00 0.38 0.00 100 1016.4
20260902071758 25 16 0.0 3.2 0.00 0.38 0.00 100 1016.4
20260902071258 25 1 0.0 0.0 0.00 0.38 0.00 100 1016.4
20260902070859 25 1 0.0 0.0 0.00 0.38 0.00 100 1016.4
20260902070758 25 1 0.0 0.0 0.00 0.38 0.00 100 1016.4
20260902070258 25 1 0.0 0.0 0.00 0.38 0.00 100 1016.4
20260902070103 25 1 0.0 0.0 0.00 0.38 0.00 100 1016.4
20260902065914 25 1 0.0 0.0 0.00 0.38 0.00 100 1016.4
20260902065758 25 1 0.0 0.0 0.00 0.38 0.00 100 1016.4
20260902065258 25 1 0.0 1.6 0.00 0.38 0.00 100 1016.5
20260902064758 25 15 0.0 4.8 0.00 0.38 0.00 100 1016.4
20260902064258 25 35 0.0 8.0 0.00 0.38 0.00 100 1016.4
20260902064124 25 8 3.2 6.4 0.00 0.38 0.00 100 1016.5
20260902063758 25 8 3.2 6.4 0.00 0.38 0.00 100 1016.5
20260902063258 25 21 0.0 0.0 0.00 0.38 0.00 100 1016.6
20260902062758 25 21 0.0 3.2 0.00 0.38 0.00 100 1016.6
20260902062623 25 16 0.0 0.0 0.00 0.38 0.00 100 1016.7
20260902062258 25 16 0.0 0.0 0.00 0.38 0.00 100 1016.7
20260902062122 25 16 0.0 0.0 0.00 0.38 0.00 100 1016.8
20260902061758 25 16 0.0 0.0 0.00 0.38 0.00 100 1016.8
20260902061620 25 16 0.0 0.0 0.00 0.38 0.00 100 1016.9
20260902061538 25 16 0.0 0.0 0.00 0.38 0.00 100 1016.9
20260902061258 25 16 0.0 0.0 0.00 0.38 0.00 100 1016.9
20260902061120 25 16 0.0 0.0 0.00 0.38 0.00 100 1016.9
20260902060758 25 16 0.0 0.0 0.00 0.38 0.00 100 1016.9
20260902060258 25 16 0.0 0.0 0.00 0.38 0.00 100 1016.9
20260902055758 25 16 0.0 0.0 0.00 0.38 0.00 100 1016.9
20260902055258 25 16 0.0 0.0 0.00 0.38 0.00 100 1017.0
20260902055101 25 16 0.0 0.0 0.00 0.38 0.00 100 1017.0
20260902054758 25 16 0.0 0.0 0.00 0.38 0.00 100 1017.0
20260902054445 25 16 0.0 0.0 0.00 0.38 0.00 100 1017.0
20260902054258 25 16 0.0 0.0 0.00 0.38 0.00 100 1017.1
20260902053758 25 16 0.0 0.0 0.00 0.38 0.00 100 1017.0
20260902053541 25 16 0.0 0.0 0.00 0.38 0.00 100 1017.0
20260902053258 25 16 0.0 0.0 0.00 0.38 0.00 100 1017.0
20260902053129 25 16 0.0 0.0 0.00 0.38 0.00 100 1017.1
20260902052758 25 16 0.0 0.0 0.00 0.38 0.00 100 1017.1
20260902052541 25 16 0.0 0.0 0.00 0.38 0.00 100 1017.1
20260902052258 25 16 0.0 0.0 0.00 0.38 0.00 100 1017.1
20260902051758 25 16 0.0 0.0 0.00 0.38 0.00 100 1017.1
20260902051258 25 16 0.0 0.0 0.00 0.38 0.00 100 1017.1
20260902051024 25 16 0.0 0.0 0.00 0.38 0.00 100 1017.2
20260902050758 25 16 0.0 0.0 0.00 0.38 0.00 100 1017.2
20260902050258 25 16 0.0 1.6 0.00 0.38 0.00 100 1017.3
20260902045758 25 355 0.0 0.0 0.00 0.38 0.00 100 1017.3
20260902045613 25 355 0.0 0.0 0.00 0.38 0.38 100 1017.4
20260902045258 25 355 0.0 0.0 0.00 0.38 0.38 100 1017.4
20260902045025 25 355 0.0 0.0 0.00 0.38 0.38 100 1017.5
20260902044758 25 355 0.0 0.0 0.00 0.38 0.38 100 1017.5
20260902044258 25 355 0.0 0.0 0.00 0.38 0.38 100 1017.4
20260902043758 25 355 0.0 1.6 0.00 0.38 0.38 100 1017.4
20260902043455 25 351 1.6 1.6 0.00 0.38 0.38 100 1017.4
20260902043258 25 351 1.6 1.6 0.00 0.38 0.38 100 1017.4
20260902043125 25 264 0.0 0.0 0.00 0.38 0.38 100 1017.4
20260902042758 25 264 0.0 0.0 0.00 0.38 0.38 100 1017.4
20260902042258 26 264 0.0 0.0 0.00 0.38 0.38 100 1017.5
20260902041940 26 264 0.0 0.0 0.00 0.38 0.38 100 1017.5
20260902041758 25 264 0.0 0.0 0.00 0.38 0.38 100 1017.4
20260902041519 26 264 0.0 0.0 0.00 0.38 0.38 100 1017.4
20260902041258 26 264 0.0 0.0 0.00 0.38 0.38 100 1017.4
20260902041038 26 264 0.0 0.0 0.00 0.38 0.38 100 1017.5
20260902040758 26 264 0.0 0.0 0.00 0.38 0.38 100 1017.5
20260902040259 26 264 0.0 0.0 0.00 0.38 0.38 100 1017.5
20260902040032 26 264 0.0 0.0 0.00 0.38 0.38 100 1017.6
20260902035759 26 264 0.0 0.0 0.00 0.38 0.38 100 1017.6
20260902035259 26 264 0.0 0.0 0.00 0.38 0.38 100 1017.6
20260902035037 26 264 0.0 0.0 0.00 0.38 0.38 100 1017.7
20260902034759 26 264 0.0 0.0 0.00 0.38 0.38 100 1017.7
20260902034259 26 264 0.0 0.0 0.00 0.38 0.38 100 1017.7
20260902033923 26 264 0.0 0.0 0.00 0.38 0.38 100 1017.8
20260902033759 26 264 0.0 0.0 0.00 0.38 0.38 100 1017.8
20260902033413 26 264 0.0 0.0 0.00 0.38 0.38 100 1017.9
20260902033259 26 264 0.0 0.0 0.00 0.38 0.38 100 1017.9
20260902032759 26 264 0.0 0.0 0.00 0.38 0.38 100 1017.9
20260902032259 26 264 0.0 0.0 0.00 0.38 0.38 100 1018.0
20260902032014 26 264 0.0 0.0 0.00 0.38 0.38 100 1018.1
20260902031759 26 264 0.0 0.0 0.00 0.38 0.38 100 1018.1
20260902031259 26 264 0.0 0.0 0.00 0.38 0.38 100 1018.2
20260902031129 26 264 0.0 0.0 0.00 0.38 0.38 100 1018.2
20260902030759 26 264 0.0 0.0 0.00 0.38 0.38 100 1018.2
20260902030259 26 264 0.0 0.0 0.00 0.38 0.38 100 1018.2
20260902030042 26 264 0.0 0.0 0.00 0.38 0.38 100 1018.2
20260902025759 26 264 0.0 0.0 0.00 0.38 0.38 100 1018.2
20260902025527 26 264 0.0 0.0 0.00 0.38 0.38 100 1018.2
20260902025259 26 264 0.0 0.0 0.00 0.38 0.38 100 1018.2
20260902025126 26 264 0.0 0.0 0.00 0.38 0.38 100 1018.2
20260902024759 26 264 0.0 0.0 0.00 0.38 0.38 100 1018.2
20260902024259 26 264 0.0 0.0 0.03 0.38 0.38 100 1018.2
20260902023759 26 264 0.0 0.0 0.03 0.38 0.38 100 1018.2
20260902023259 26 264 0.0 0.0 0.03 0.38 0.38 100 1018.2
20260902023131 26 264 0.0 0.0 0.03 0.38 0.38 100 1018.1
20260902022759 26 264 0.0 0.0 0.03 0.38 0.38 100 1018.1
20260902022259 26 264 0.0 0.0 0.03 0.38 0.38 100 1018.1
20260902022126 26 264 0.0 0.0 0.03 0.38 0.38 100 1018.2
20260902021759 26 264 0.0 0.0 0.03 0.38 0.38 100 1018.2
20260902021259 26 264 0.0 0.0 0.03 0.38 0.38 100 1018.1
20260902021136 26 264 0.0 0.0 0.03 0.38 0.38 100 1018.1
20260902020759 26 264 0.0 0.0 0.03 0.38 0.38 100 1018.1
20260902020259 26 264 0.0 0.0 0.03 0.38 0.38 100 1018.0
20260902015759 26 264 0.0 0.0 0.03 0.38 0.38 100 1018.0
20260902015306 26 264 0.0 0.0 0.03 0.38 0.38 100 1017.9
20260902015259 26 264 0.0 0.0 0.03 0.38 0.38 100 1017.9
20260902014759 26 264 0.0 0.0 0.03 0.38 0.38 100 1017.9
20260902014259 26 264 0.0 0.0 0.00 0.36 0.36 100 1017.8
20260902014117 26 264 0.0 0.0 0.00 0.36 0.36 100 1017.8
20260902013759 26 264 0.0 0.0 0.00 0.36 0.36 100 1017.8
20260902013259 26 264 0.0 0.0 0.00 0.36 0.36 100 1017.8
20260902013126 26 264 0.0 0.0 0.00 0.36 0.36 100 1017.7
20260902012759 26 264 0.0 0.0 0.00 0.36 0.36 100 1017.7
20260902012259 26 264 0.0 0.0 0.00 0.36 0.36 100 1017.7
20260902011759 26 264 0.0 0.0 0.00 0.36 0.36 100 1017.7
20260902011259 26 264 0.0 0.0 0.00 0.36 0.36 100 1017.7
20260902011102 26 264 0.0 0.0 0.00 0.36 0.36 100 1017.8
20260902010759 26 264 0.0 0.0 0.00 0.36 0.36 100 1017.8
20260902010259 26 264 0.0 0.0 0.00 0.36 0.36 100 1017.8
20260902010129 26 264 0.0 0.0 0.00 0.36 0.36 100 1017.8
20260902005759 26 264 0.0 0.0 0.00 0.36 0.36 100 1017.8
20260902005259 26 264 0.0 0.0 0.00 0.36 0.36 100 1017.5
20260902005201 26 264 0.0 0.0 0.00 0.36 0.36 100 1017.6
20260902004759 26 264 0.0 0.0 0.00 0.36 0.36 100 1017.6
20260902004259 26 264 0.0 0.0 0.00 0.36 0.36 100 1017.6
20260902004127 26 264 0.0 0.0 0.00 0.36 0.36 100 1017.6
20260902003759 26 264 0.0 0.0 0.00 0.36 0.36 100 1017.6
20260902003259 26 264 0.0 0.0 0.00 0.36 0.36 100 1017.6
20260902003042 26 264 0.0 0.0 0.00 0.36 0.36 100 1017.8
20260902002759 26 264 0.0 0.0 0.00 0.36 0.36 100 1017.8
20260902002259 26 264 0.0 0.0 0.00 0.36 0.36 100 1017.9
20260902002057 26 264 0.0 0.0 0.00 0.36 0.36 100 1017.9
20260902001759 26 264 0.0 0.0 0.00 0.36 0.36 100 1017.9
20260902001259 26 264 0.0 0.0 0.00 0.36 0.36 100 1017.8
20260902000759 26 264 0.0 0.0 0.00 0.36 0.36 100 1017.8
20260902000259 26 264 0.0 0.0 0.00 0.36 0.36 100 1017.8
20260901235800 26 264 0.0 0.0 0.00 0.46 0.36 100 1017.7
20260901235300 26 264 0.0 0.0 0.00 0.46 0.36 100 1017.7
20260901234800 26 264 0.0 4.8 0.00 0.46 0.36 100 1017.7
20260901234300 26 241 0.0 4.8 0.00 0.46 0.36 100 1017.6
20260901234046 26 196 0.0 3.2 0.00 0.46 0.36 100 1017.4
20260901233800 26 196 0.0 3.2 0.00 0.46 0.36 100 1017.4
20260901233300 26 187 0.0 3.2 0.00 0.46 0.36 100 1017.3
20260901233002 26 225 0.0 4.8 0.00 0.46 0.36 100 1017.4
20260901232800 26 225 0.0 4.8 0.00 0.46 0.36 100 1017.4
20260901232300 26 257 3.2 3.2 0.00 0.46 0.36 100 1017.5
20260901232046 26 133 0.0 0.0 0.00 0.46 0.36 100 1017.5
20260901231800 26 133 0.0 0.0 0.00 0.46 0.36 100 1017.5
20260901231300 26 133 0.0 0.0 0.00 0.46 0.36 100 1017.3
20260901230800 26 133 0.0 6.4 0.00 0.46 0.36 100 1017.1
20260901230300 26 158 1.6 6.4 0.00 0.46 0.36 100 1017.0
20260901225953 26 130 1.6 8.0 0.00 0.46 0.36 100 1017.0
20260901225800 26 130 1.6 8.0 0.00 0.46 0.36 100 1017.0
20260901225300 26 102 4.8 8.0 0.00 0.46 0.36 100 1016.9
20260901225127 26 133 6.4 9.7 0.00 0.46 0.36 100 1016.8
20260901224800 26 133 6.4 9.7 0.00 0.46 0.36 100 1016.8
20260901224300 26 149 8.0 9.7 0.00 0.46 0.36 100 1016.8
20260901224112 26 80 3.2 8.0 0.00 0.46 0.36 100 1016.9
20260901223800 26 80 3.2 8.0 0.00 0.46 0.36 100 1016.9
20260901223300 26 90 4.8 11.3 0.00 0.46 0.36 100 1016.8
20260901223131 26 135 3.2 11.3 0.00 0.46 0.36 100 1016.7
20260901222800 26 135 3.2 11.3 0.00 0.46 0.36 100 1016.7
20260901222300 26 98 4.8 9.7 0.00 0.46 0.36 100 1016.9
20260901222130 26 98 8.0 16.1 0.00 0.46 0.36 100 1017.0
20260901221800 26 98 8.0 16.1 0.00 0.46 0.36 100 1017.0
20260901221300 26 94 6.4 14.5 0.00 0.46 0.36 100 1017.1
20260901221130 27 99 6.4 20.9 0.00 0.46 0.36 100 1017.1
20260901220800 27 99 6.4 20.9 0.00 0.46 0.36 100 1017.1
20260901220300 27 106 4.8 14.5 0.00 1.17 0.36 100 1017.1
20260901215800 27 154 3.2 8.0 0.00 1.17 0.36 100 1017.0
20260901215300 27 178 3.2 4.8 0.00 1.17 0.36 100 1016.9
20260901214800 27 140 1.6 3.2 0.00 1.17 0.36 100 1016.8
20260901214300 27 151 1.6 3.2 0.00 1.17 0.36 100 1017.0
20260901214013 27 144 1.6 6.4 0.00 1.17 0.36 100 1017.1
20260901213800 27 144 1.6 6.4 0.00 1.17 0.36 100 1017.1
20260901213300 27 123 4.8 6.4 0.00 1.17 0.36 100 1017.2
20260901212800 27 139 3.2 4.8 0.00 1.17 0.36 100 1017.3
20260901212300 27 77 3.2 8.0 0.00 1.17 0.36 100 1017.1
20260901211800 27 106 4.8 9.7 0.00 1.17 0.36 100 1016.9
20260901211300 28 112 1.6 6.4 0.00 1.17 0.36 100 1016.7
20260901210800 27 135 4.8 9.7 0.00 1.17 0.36 100 1016.7
20260901210300 28 80 3.2 8.0 0.00 1.17 0.36 100 1016.4
20260901205800 28 97 4.8 12.9 0.00 3.15 0.36 100 1016.3
20260901205300 28 102 11.3 14.5 0.00 3.15 0.36 100 1016.2
20260901204800 28 82 0.0 0.0 0.00 3.15 0.36 100 1016.4
20260901204300 28 82 0.0 0.0 0.03 3.15 0.36 100 1016.4
20260901203800 28 82 0.0 6.4 0.08 3.15 0.36 100 1016.5
20260901203622 28 98 3.2 6.4 0.13 3.15 0.36 100 1016.4
20260901203300 28 98 3.2 6.4 0.13 3.15 0.36 100 1016.4
20260901202800 28 50 0.0 9.7 0.20 3.15 0.36 100 1016.4
20260901202300 28 70 0.0 0.0 0.25 3.15 0.36 100 1016.3
20260901201800 28 70 0.0 0.0 0.30 3.15 0.36 100 1016.3
20260901201300 28 70 0.0 0.0 0.36 3.15 0.36 100 1016.5
20260901200800 28 70 0.0 0.0 0.36 3.15 0.36 100 1016.5
20260901200301 28 70 0.0 4.8 0.36 3.15 0.36 100 1016.5
20260901195801 28 120 3.2 6.4 0.36 3.15 0.36 100 1016.7
20260901195301 28 98 4.8 11.3 0.36 3.15 0.36 100 1016.8
20260901194801 27 90 6.4 11.3 0.36 3.15 0.36 100 1016.8
20260901194301 27 71 9.7 17.7 0.33 3.12 0.33 100 1016.8
20260901193801 27 78 11.3 17.7 0.28 3.07 0.28 100 1016.7
20260901193301 27 45 11.3 25.7 0.23 3.02 0.23 100 1016.9
20260901192801 28 95 11.3 17.7 0.15 2.95 0.15 100 1017.1
20260901192301 28 33 8.0 27.4 0.10 2.90 0.10 100 1017.0
20260901191801 28 39 17.7 24.1 0.05 2.84 0.05 100 1017.0
20260901191301 31 67 22.5 29.0 0.00 2.79 0.00 100 1016.8
20260901190801 33 73 6.4 32.2 0.00 2.79 0.00 100 1016.8
20260901190301 35 30 3.2 11.3 0.00 2.79 0.00 100 1016.7
20260901190046 35 26 8.0 11.3 0.00 2.79 0.00 100 1016.7
20260901185801 35 26 8.0 11.3 0.00 2.79 0.00 100 1016.7
20260901185301 35 77 3.2 12.9 0.00 2.79 0.00 100 1016.7
20260901184801 35 28 3.2 9.7 0.00 2.79 0.00 100 1016.8
20260901184301 35 1 0.0 14.5 0.00 2.79 0.00 100 1017.0
20260901183801 35 80 4.8 9.7 0.00 2.79 0.00 100 1017.0
20260901183301 35 59 0.0 8.0 0.00 2.79 0.00 100 1017.1
20260901182801 35 30 4.8 14.5 0.00 2.79 0.00 100 1017.0
20260901182305 36 9 6.4 11.3 0.00 2.79 0.00 100 1017.1
20260901182014 38 75 1.6 16.1 0.00 2.79 0.00 100 1017.2
20260901181801 38 75 1.6 16.1 0.00 2.79 0.00 100 1017.2
20260901181301 39 357 9.7 17.7 0.00 2.79 0.00 100 1017.3
20260901180801 40 23 14.5 14.5 0.00 2.79 0.00 100 1017.3
20260901180301 43 21 0.0 17.7 0.00 2.79 0.00 100 1017.4
20260901175801 40 9 8.0 14.5 0.00 2.79 0.00 100 1017.4
20260901175301 40 7 4.8 16.1 0.00 2.79 0.00 100 1017.5
20260901174801 40 39 3.2 9.7 0.00 2.79 0.00 100 1017.6
20260901174301 41 28 6.4 14.5 0.00 2.79 0.00 100 1017.7
20260901173801 41 28 6.4 14.5 0.00 2.79 0.00 100 1017.7
20260901173301 46 334 4.8 11.3 0.00 2.79 0.00 100 1017.7
20260901172801 45 348 1.6 9.7 0.00 2.79 0.00 100 1017.8
20260901172304 44 1 4.8 8.0 0.00 2.79 0.00 100 1017.8
20260901172129 41 36 4.8 14.5 0.00 2.79 0.00 100 1017.9
20260901171801 41 36 4.8 14.5 0.00 2.79 0.00 100 1017.9
20260901171301 49 338 12.9 14.5 0.00 2.79 0.00 100 1018.0
20260901171127 48 56 6.4 11.3 0.00 2.79 0.00 100 1018.0
20260901170801 48 56 6.4 11.3 0.00 2.79 0.00 100 1018.0
20260901170301 47 277 1.6 11.3 0.00 2.79 0.00 100 1018.0
20260901165801 42 358 9.7 16.1 0.00 2.79 0.00 100 1018.1
20260901165301 46 344 14.5 14.5 0.00 2.79 0.00 100 1018.1
20260901164801 48 82 3.2 12.9 0.00 2.79 0.00 100 1018.2
20260901164301 47 7 9.7 17.7 0.00 2.79 0.00 100 1018.3